Regional Weather Roundup
Issued by NWS

Home | Current Version | Previous Version | Text Only | Print | Product List | Glossary Off
Versions: 1 2 3 4 5 6 7 8 9 10 11 12 13 14 15 16 17 18 19 20 21 22 23 24 25 26 27 28 29 30 31 32 33 34 35 36 37 38 39 40 41 42 43 44 45 46 47 48 49 50

000
ASUS43 KOAX 251810
RWRNE

WEATHER ROUNDUP FOR NEBRASKA
NATIONAL WEATHER SERVICE OMAHA NE
100 PM CDT MON MAY 25 2015

NOTES: SATELLITE DATA IS BEING USED TO AUGMENT CLOUD COVER ABOVE
       12000 FEET.
       "FAIR" INDICATES FEW OR NO CLOUDS BELOW 12,000 FEET WITH NO
       SIGNIFICANT WEATHER AND/OR OBSTRUCTIONS TO VISIBILITY.

  * THESE STATIONS DO NOT REPORT WEATHER SUCH AS RAIN...SNOW OR FOG.

NEZ001>004-019>022-054>056-251900-
NEBRASKA PANHANDLE

CITY           SKY/WX    TMP DP  RH WIND       PRES   REMARKS
SCOTTSBLUFF    RAIN      53  51  93 W13       29.87R FOG
6HR MIN TEMP:  50; 6HR MAX TEMP:  53; 6HR PCP:  0.39;

ALLIANCE       HVY RAIN  52  52 100 NE10      29.83R FOG
6HR MIN TEMP:  50; 6HR MAX TEMP:  53; 6HR PCP:  0.86;

CHADRON        CLOUDY    56  52  86 E5        29.84R
6HR MIN TEMP:  52; 6HR MAX TEMP:  57; 6HR PCP:  0.03;

KIMBALL          N/A    N/A N/A N/A MISG        N/A
SIDNEY         LGT RAIN  52  49  89 NW16      29.87S
6HR MIN TEMP:  49; 6HR MAX TEMP:  54; 6HR PCP:  0.22;

$$

NEZ057>060-069>072-079>082-251900-
SOUTHWEST NEBRASKA

CITY           SKY/WX    TMP DP  RH WIND       PRES   REMARKS
NORTH PLATTE   MOSUNNY   65  52  62 SW9       29.79F
6HR MIN TEMP:  53; 6HR MAX TEMP:  67; 6HR PCP:  0.01;

IMPERIAL       PTSUNNY   63  51  65 W10       29.82S
6HR MIN TEMP:  51; 6HR MAX TEMP:  63;

LEXINGTON      MOSUNNY   69  56  63 S9        29.79R
MCCOOK         MOSUNNY   69  52  54 VRB6      29.82R
6HR MIN TEMP:  51; 6HR MAX TEMP:  69;

OGALLALA       CLOUDY    62  51  67 W13       29.80F
$$

NEZ005>010-023>029-035>040-094-251900-
NORTH CENTRAL NEBRASKA

CITY           SKY/WX    TMP DP  RH WIND       PRES   REMARKS
VALENTINE      TSTM      55  52  89 S13       29.79  FOG
6HR MIN TEMP:  54; 6HR MAX TEMP:  62; 6HR PCP:  0.33;

AINSWORTH      CLOUDY    62  60  93 E8        29.76S
BROKEN BOW     CLOUDY    69  54  58 S9        29.77S
6HR MIN TEMP:  52; 6HR MAX TEMP:  69;

O`NEILL        PTSUNNY   70  59  68 S7        29.75S
ORD            MOSUNNY   69  53  56 SW8       29.76S
6HR MIN TEMP:  56; 6HR MAX TEMP:  70;

THEDFORD       CLOUDY    60  53  76 W10       29.80S
$$

NEZ041-046>049-061>064-073>077-083>087-251900-
SOUTH CENTRAL NEBRASKA

CITY           SKY/WX    TMP DP  RH WIND       PRES   REMARKS
GRAND ISLAND   PTSUNNY   72  54  53 S12G21    29.80R
6HR MIN TEMP:  56; 6HR MAX TEMP:  73;

AURORA         CLOUDY    70  54  56 S15       29.81R
HASTINGS       CLOUDY    68  55  63 S14G22    29.81R
6HR MIN TEMP:  55; 6HR MAX TEMP:  69;

HEBRON         CLOUDY    70  59  67 S9        29.82F
HOLDREGE       PTSUNNY   68  53  58 SE13      29.81R
KEARNEY *      PTSUNNY   70  54  56 S12G20    29.80R
YORK           PTSUNNY   72  55  56 SW15      29.81R
$$

NEZ011>018-030>034-042>045-251900-
NORTHEAST NEBRASKA

CITY           SKY/WX    TMP DP  RH WIND       PRES   REMARKS
NORFOLK        MOSUNNY   74  57  55 SW13      29.76F
6HR MIN TEMP:  57; 6HR MAX TEMP:  74;

ALBION         MOSUNNY   72  53  50 SW18      29.78R
BLAIR          MOSUNNY   74  56  52 SW13G26   29.81R
COLUMBUS *     MOSUNNY   73  54  49 SW13G20   29.82R
FREMONT        MOSUNNY   74  56  52 S12       29.81R
TEKAMAH        MOSUNNY   78  57  48 S17       29.77S
6HR MIN TEMP:  63; 6HR MAX TEMP:  79; 6HR PCP: TRACE;

WAYNE          MOSUNNY   72  60  66 SW8       29.76S
$$

NEZ050>053-065>068-078-088>093-251900-
SOUTHEAST NEBRASKA

CITY           SKY/WX    TMP DP  RH WIND       PRES   REMARKS
LINCOLN        CLOUDY    74  56  53 S16       29.82R
6HR MIN TEMP:  61; 6HR MAX TEMP:  75; 6HR PCP: TRACE;

OMAHA EPPLEY   MOSUNNY   75  56  51 SW10G20   29.80R
6HR MIN TEMP:  62; 6HR MAX TEMP:  75;

BEATRICE       CLOUDY    72  62  69 S13       29.83S
FALLS CITY     MOSUNNY   76  62  62 S17G25    29.83R
6HR MIN TEMP:  61; 6HR MAX TEMP:  77; 6HR PCP:  0.01;

NEBRASKA CITY  CLOUDY    74  59  60 SW15      29.83R
PLATTSMOUTH    CLOUDY    74  56  53 S16       29.83R
$$

NEZ044-045-051>053-067-251900-
OMAHA AREA

CITY           SKY/WX    TMP DP  RH WIND       PRES   REMARKS
OMAHA EPPLEY   MOSUNNY   75  56  51 SW10G20   29.80R
6HR MIN TEMP:  62; 6HR MAX TEMP:  75;

BLAIR          MOSUNNY   74  56  52 SW13G26   29.81R
FREMONT        MOSUNNY   74  56  52 S12       29.81R
MILLARD        CLOUDY    75  57  53 SW8G16    29.81R
OFFUTT AFB     MOSUNNY   75  59  55 S14G20    29.81R
PLATTSMOUTH    CLOUDY    74  56  53 S16       29.83R
WAHOO          FAIR      75  55  50 S12       29.80S
$$



USA.gov is the U.S. government's official web portal to all federal, state and local government web resources and services.